Powrót do katalogu

STARLINK-35966

AktywnyŁącznośćVLEO
NORAD 66821·PAYLOAD·🇺🇸 United States

Wystrzelony Dec 2, 2025 z Vandenberg Space Force Base

Loading…

Następne Przeloty (najbliższe 24 godziny)

TLE

ŚwieżeSource: CelesTrak SupGP

Epoka: Sep 15, 2026, 03:20 UTC

1 66821C 25280A   26258.13937500 -.00011056  00000+0 -92687-3 0  2588
2 66821  70.0012 216.9751 0003084 272.9735 277.1463 14.98323167    11

Śledź STARLINK-35966 w czasie rzeczywistym z AllMySat

Download on the App Store